This demonstration page uses our WeatherBlox Daily Observations layout. Learn more.

Hourly Observations for October 4, 2016

Temp ( °F °C ) Dew Point ( °F °C ) Humidity (%) Winds ( mph kmh ) Pressure ( in mb ) Visibility ( mi km ) Precip ( " mm )
12:15 am 00:15 Clear 69 20.8 52 11 54 54 S 28 44 29.47 998 10 16.09344 0 0
12:35 am 00:35 Clear 69 20.8 53 11.5 55 55 S 26 43 29.47 998 10 16.09344 0 0
12:55 am 00:55 Clear 69 20.8 53 11.7 56 56 S 18 30 29.5 999 10 16.09344 0 0
1:15 am 01:15 Clear 69 20.7 53 11.8 57 57 S 17 28 29.5 999 10 16.09344 0 0
1:35 am 01:35 Clear 69 20.5 54 12 58 58 S 16 26 29.5 999 10 16.09344 0 0
1:55 am 01:55 Mostly Cloudy 68 20.2 54 12.1 60 60 SW 9 15 29.53 1000 10 16.09344 0 0
2:15 am 02:15 Cloudy 68 20.1 54 12.1 60 60 SW 8 13 29.53 1000 10 16.09344 0 0
2:35 am 02:35 Cloudy 68 19.8 54 12.1 61 61 SW 8 13 29.53 1000 10 16.09344 0 0
2:55 am 02:55 Cloudy 66 19 52 11.1 60 60 NNW 5 7 29.56 1001 10 16.09344 0 0
3:15 am 03:15 Cloudy 62 16.7 51 10.6 67 67 NNW 5 7 29.53 1000 10 16.09344 0 0
3:35 am 03:35 Cloudy 59 15.2 50 10.1 72 72 NNW 6 9 29.56 1001 10 16.09344 0 0
3:55 am 03:55 Cloudy 59 15 50 9.8 71 71 NW 5 7 29.56 1001 10 16.09344 0 0
4:15 am 04:15 Cloudy 59 14.8 49 9.6 71 71 N 6 9 29.56 1001 10 16.09344 0 0
4:35 am 04:35 Cloudy 59 14.8 49 9.5 71 71 Calm 29.56 1001 10 16.09344 0 0
4:55 am 04:55 Cloudy 58 14.7 49 9.2 70 70 N 3 6 29.56 1001 10 16.09344 0 0
5:15 am 05:15 Cloudy 59 14.8 49 9.4 70 70 NE 3 6 29.56 1001 10 16.09344 0 0
5:35 am 05:35 Cloudy with Light Rain 58 14.5 50 9.8 74 74 NNE 5 7 29.56 1001 10 16.09344 0 0
5:55 am 05:55 Cloudy 57 14.1 51 10.5 79 79 N 3 6 29.56 1001 10 16.09344 0 0
6:15 am 06:15 Cloudy 58 14.2 50 10.2 77 77 NNW 3 6 29.59 1002 10 16.09344 0 0
6:35 am 06:35 Cloudy 57 14 51 10.3 79 79 NNW 3 6 29.59 1002 10 16.09344 0 0
6:55 am 06:55 Cloudy 57 14 50 10.1 78 78 N 3 6 29.59 1002 10 16.09344 0 0
7:15 am 07:15 Cloudy 57 14 50 10.1 78 78 Calm 29.59 1002 10 16.09344 0 0
7:35 am 07:35 Cloudy 57 13.8 50 10 78 78 N 3 6 29.59 1002 10 16.09344 0 0
7:55 am 07:55 Cloudy 56 13.6 51 10.3 81 81 Calm 29.59 1002 10 16.09344 0 0
8:15 am 08:15 Cloudy 57 13.7 50 10.2 80 80 Calm 29.59 1002 10 16.09344 0 0
8:35 am 08:35 Cloudy 57 13.7 50 10.2 80 80 Calm 29.62 1003 10 16.09344 0 0
8:55 am 08:55 Cloudy with Light Rain 57 14 50 10.2 78 78 Calm 29.62 1003 10 16.09344 0 0
9:15 am 09:15 Cloudy 57 14.1 51 10.7 80 80 Calm 29.59 1002 10 16.09344 0 0
9:35 am 09:35 Cloudy 59 15 49 9.5 70 70 NNW 6 9 29.59 1002 10 16.09344 0 0
9:55 am 09:55 Cloudy 60 15.7 46 7.5 58 58 NW 6 9 29.59 1002 10 16.09344 0 0
10:15 am 10:15 Mostly Cloudy 61 16.3 42 5.7 50 50 NNW 7 11 29.56 1001 10 16.09344 0 0
10:35 am 10:35 Partly Cloudy 65 18.1 39 4.1 40 40 NW 10 17 29.56 1001 10 16.09344 0 0
10:55 am 10:55 Mostly Cloudy 65 18.2 38 3.4 38 38 NW 13 20 29.56 1001 10 16.09344 0 0
11:15 am 11:15 Cloudy 62 16.9 39 3.9 42 42 NW 13 20 29.59 1002 10 16.09344 0 0
11:35 am 11:35 Cloudy 62 16.7 39 3.8 42 42 NW 9 15 29.56 1001 10 16.09344 0 0
11:55 am 11:55 Cloudy 62 16.8 39 3.8 42 42 NNW 12 19 29.59 1002 10 16.09344 0 0
12:15 pm 12:15 Cloudy 63 17.4 39 4 41 41 NNW 13 20 29.56 1001 10 16.09344 0 0
12:35 pm 12:35 Partly Cloudy 65 18.5 38 3.4 37 37 N 14 22 29.56 1001 10 16.09344 0 0
12:55 pm 12:55 Sunny 67 19.4 36 2.3 32 32 N 9 15 29.53 1000 10 16.09344 0 0
1:15 pm 13:15 Sunny 68 20.1 35 1.9 30 30 N 8 13 29.53 1000 10 16.09344 0 0
1:35 pm 13:35 Sunny 69 20.5 35 1.9 29 29 N 10 17 29.53 1000 10 16.09344 0 0
1:55 pm 13:55 Sunny 69 20.8 35 1.8 28 28 N 8 13 29.53 1000 10 16.09344 0 0
2:15 pm 14:15 Sunny 70 21 35 1.5 28 28 Calm 29.53 1000 10 16.09344 0 0
2:35 pm 14:35 Sunny 71 21.7 35 1.4 26 26 NW 7 11 29.53 1000 10 16.09344 0 0
2:55 pm 14:55 Sunny 71 21.7 34 0.9 25 25 NW 8 13 29.53 1000 10 16.09344 0 0
3:15 pm 15:15 Sunny 71 21.6 34 1.2 26 26 NW 10 17 29.53 1000 10 16.09344 0 0
3:35 pm 15:35 Mostly Cloudy 70 21.3 35 1.4 27 27 NW 7 11 29.53 1000 10 16.09344 0 0
3:55 pm 15:55 Cloudy 71 21.6 34 1.3 26 26 WNW 6 9 29.53 1000 10 16.09344 0 0
4:15 pm 16:15 Mostly Cloudy 72 22.2 34 1.1 25 25 NW 8 13 29.53 1000 10 16.09344 0 0
4:35 pm 16:35 Mostly Cloudy 71 21.5 35 1.7 27 27 WNW 8 13 29.53 1000 10 16.09344 0 0
4:55 pm 16:55 Partly Cloudy 70 21.3 33 0.7 25 25 NW 9 15 29.53 1000 10 16.09344 0 0
5:15 pm 17:15 Sunny 71 21.4 34 1.1 26 26 WNW 7 11 29.53 1000 10 16.09344 0 0
5:35 pm 17:35 Sunny 70 20.9 34 1.3 27 27 W 7 11 29.53 1000 10 16.09344 0 0
5:55 pm 17:55 Sunny 69 20.6 35 1.5 28 28 WNW 7 11 29.53 1000 10 16.09344 0 0
6:15 pm 18:15 Partly Cloudy 70 21 35 1.5 28 28 WNW 7 11 29.56 1001 10 16.09344 0 0
6:35 pm 18:35 Partly Cloudy 69 20.4 35 1.9 29 29 WNW 6 9 29.56 1001 10 16.09344 0 0
6:55 pm 18:55 Sunny 67 19.3 36 2.1 32 32 W 6 9 29.59 1002 10 16.09344 0 0
7:15 pm 19:15 Clear 64 17.6 36 2.2 36 36 W 6 9 29.62 1003 10 16.09344 0 0
7:35 pm 19:35 Clear 61 16 33 0.7 36 36 W 8 13 29.65 1004 10 16.09344 0 0
7:55 pm 19:55 Clear 61 16 33 0.5 35 35 W 7 11 29.65 1004 10 16.09344 0 0
8:15 pm 20:15 Clear 60 15.6 33 0.6 36 36 W 8 13 29.65 1004 10 16.09344 0 0
8:35 pm 20:35 Clear 57 13.9 34 1.2 42 42 W 7 11 29.68 1005 10 16.09344 0 0
8:55 pm 20:55 Clear 56 13.1 35 1.5 46 46 W 7 11 29.71 1006 10 16.09344 0 0
9:15 pm 21:15 Clear 56 13.3 34 1.2 44 44 WNW 7 11 29.68 1005 10 16.09344 0 0
9:35 pm 21:35 Clear 57 13.7 34 0.9 42 42 W 9 15 29.68 1005 10 16.09344 0 0
9:55 pm 21:55 Clear 55 12.5 34 1 46 46 W 8 13 29.74 1007 10 16.09344 0 0
10:15 pm 22:15 Clear 54 12.3 34 1 46 46 W 8 13 29.74 1007 10 16.09344 0 0
10:35 pm 22:35 Clear 53 11.8 34 1.3 49 49 WNW 7 11 29.74 1007 10 16.09344 0 0
10:55 pm 22:55 Clear 51 10.6 35 1.8 55 55 WNW 6 9 29.77 1008 10 16.09344 0 0
11:15 pm 23:15 Clear 51 10.8 36 2 55 55 NW 3 6 29.77 1008 10 16.09344 0 0
11:35 pm 23:35 Clear 51 10.5 36 2 56 56 Calm 29.77 1008 10 16.09344 0 0
11:55 pm 23:55 Clear 51 10.3 36 2 57 57 Calm 29.8 1009 10 16.09344 0 0

Powered by AerisWeather